Weather home | Your neighborhood | Marine | Radar | Hurricane | Almanac

Daily weather history


Statistical History for Saturday, May 20, 2017

Tampa Knight Airport, FL


  Actual Average (KTPA) Record (KTPA)
Temperature
Mean Temperature -  
Max Temperature 86 °F 96 °F (2017)
Min Temperature 68 °F 53 °F (1894)
Cooling Degree Days    
Growing Degree Days 38 (Base - )  
Moisture
Dew Point   
Average Humidity    
Maximum Humidity    
Minimum Humidity    
Precipitation
Precipitation - - ()
Wind
Wind Speed   
Max Wind Speed   
Max Gust Speed   
Visibility   
Events   
Averages and records for this station are not official NWS values.
Key: T is trace of precipitation, MM is missing value
Source: NWS Daily Summary
Seasonal Weather Averages
Time(EDT)TemperatureDew PointHumidity Sea Level Pressure Visibility Wind DirectionWind SpeedGust SpeedPrecipitationEventsConditions
12:15 AM 78.8 °F 77.0 °F 94% 30.03 in 10.0 miles East 8.1 mph - N/A   Overcast
12:35 AM 78.8 °F 77.0 °F 94% 30.03 in 10.0 miles ESE 5.8 mph - N/A   Mostly Cloudy
12:55 AM 78.8 °F 77.0 °F 94% 30.03 in 10.0 miles East 6.9 mph - N/A   Overcast
1:15 AM 78.8 °F 75.2 °F 89% 30.03 in 10.0 miles East 8.1 mph - N/A   Mostly Cloudy
1:35 AM 78.8 °F 75.2 °F 89% 30.04 in 10.0 miles East 5.8 mph - N/A   Mostly Cloudy
1:55 AM 78.8 °F 75.2 °F 89% 30.04 in 10.0 miles East 5.8 mph - N/A   Mostly Cloudy
2:15 AM 78.8 °F 75.2 °F 89% 30.04 in 10.0 miles East 6.9 mph - N/A   Mostly Cloudy
2:35 AM 78.8 °F 75.2 °F 89% 30.04 in 10.0 miles ENE 5.8 mph - N/A   Scattered Clouds
2:55 AM 78.8 °F 75.2 °F 89% 30.04 in 10.0 miles ENE 6.9 mph - N/A   Scattered Clouds
3:15 AM 78.8 °F 75.2 °F 89% 30.04 in 10.0 miles East 6.9 mph - N/A   Scattered Clouds
3:35 AM 78.8 °F 75.2 °F 89% 30.03 in 10.0 miles East 8.1 mph - N/A   Clear
3:55 AM 78.8 °F 75.2 °F 89% 30.02 in 10.0 miles ESE 9.2 mph - N/A   Scattered Clouds
4:15 AM 78.8 °F 75.2 °F 89% 30.03 in 10.0 miles East 8.1 mph - N/A   Scattered Clouds
4:35 AM 78.8 °F 75.2 °F 89% 30.02 in 10.0 miles ESE 8.1 mph - N/A   Scattered Clouds
4:55 AM 78.8 °F 75.2 °F 89% 30.02 in 10.0 miles SE 9.2 mph - N/A   Mostly Cloudy
5:15 AM 77.0 °F 75.2 °F 94% 30.01 in 7.0 miles ESE 6.9 mph - N/A   Mostly Cloudy
5:35 AM 77.0 °F 75.2 °F 94% 30.02 in 10.0 miles ESE 8.1 mph - N/A   Mostly Cloudy
5:55 AM 77.0 °F 75.2 °F 94% 30.02 in 10.0 miles ESE 6.9 mph - N/A   Mostly Cloudy
6:15 AM 77.0 °F 75.2 °F 94% 30.04 in 10.0 miles East 5.8 mph - N/A   Overcast
6:35 AM 77.0 °F 75.2 °F 94% 30.04 in 10.0 miles ESE 6.9 mph - N/A   Overcast
6:55 AM 77.0 °F 75.2 °F 94% 30.05 in 10.0 miles East 5.8 mph - N/A   Overcast
7:15 AM 77.0 °F 75.2 °F 94% 30.05 in 7.0 miles East 6.9 mph - N/A   Overcast
7:35 AM 77.0 °F 77.0 °F 100% 30.05 in 7.0 miles East 6.9 mph - N/A   Overcast
7:55 AM 78.8 °F 77.0 °F 94% 30.06 in 7.0 miles ESE 5.8 mph - N/A   Overcast
8:15 AM 78.8 °F 77.0 °F 94% 30.06 in 7.0 miles ESE 9.2 mph - N/A   Overcast
8:35 AM 80.6 °F 77.0 °F 89% 30.07 in 10.0 miles ESE 8.1 mph - N/A   Overcast
8:55 AM 80.6 °F 77.0 °F 89% 30.07 in 7.0 miles SE 9.2 mph - N/A   Overcast
9:15 AM 82.4 °F 77.0 °F 84% 30.07 in 10.0 miles SE 11.5 mph - N/A   Overcast
9:35 AM 82.4 °F 77.0 °F 84% 30.07 in 10.0 miles SE 10.4 mph - N/A   Overcast
9:55 AM 86.0 °F 77.0 °F 74% 30.07 in 10.0 miles ESE 9.2 mph - N/A   Mostly Cloudy
10:15 AM 86.0 °F 77.0 °F 74% 30.07 in 10.0 miles SE 10.4 mph - N/A   Mostly Cloudy
10:35 AM 87.8 °F 77.0 °F 70% 30.07 in 10.0 miles SE 10.4 mph 16.1 mph N/A   Scattered Clouds
10:55 AM 87.8 °F 75.2 °F 66% 30.08 in 10.0 miles SE 8.1 mph - N/A   Scattered Clouds
11:15 AM 89.6 °F 75.2 °F 62% 30.08 in 10.0 miles SSE 8.1 mph - N/A   Scattered Clouds
11:35 AM 89.6 °F 73.4 °F 59% 30.08 in 10.0 miles SE 9.2 mph - N/A   Scattered Clouds
11:55 AM 89.6 °F 73.4 °F 59% 30.08 in 10.0 miles SSE 8.1 mph - N/A   Scattered Clouds
12:15 PM 91.4 °F 73.4 °F 55% 30.08 in 10.0 miles SSE 10.4 mph - N/A   Scattered Clouds
12:35 PM 91.4 °F 71.6 °F 52% 30.07 in 10.0 miles SSE 9.2 mph - N/A   Clear
12:55 PM 91.4 °F 71.6 °F 52% 30.07 in 10.0 miles SE 9.2 mph - N/A   Scattered Clouds
1:15 PM 95.0 °F 71.6 °F 47% 30.06 in 10.0 miles SSE 5.8 mph - N/A   Scattered Clouds
1:35 PM 93.2 °F 71.6 °F 49% 30.06 in 10.0 miles SSE 8.1 mph - N/A   Scattered Clouds
1:55 PM 95.0 °F 71.6 °F 47% 30.05 in 10.0 miles South 5.8 mph - N/A   Scattered Clouds
2:15 PM 95.0 °F 71.6 °F 47% 30.05 in 10.0 miles South 3.5 mph - N/A   Scattered Clouds
2:35 PM 95.0 °F 71.6 °F 47% 30.04 in 10.0 miles SW 4.6 mph - N/A   Clear
2:55 PM 96.8 °F 69.8 °F 41% 30.03 in 10.0 miles SW 4.6 mph - N/A   Clear
3:15 PM 96.8 °F 71.6 °F 44% 30.02 in 10.0 miles ESE 6.9 mph - N/A   Clear
3:35 PM 98.6 °F 69.8 °F 39% 30.01 in 10.0 miles SSE 6.9 mph - N/A   Clear
3:55 PM 98.6 °F 69.8 °F 39% 30.01 in 10.0 miles SSE 8.1 mph - N/A   Clear
4:15 PM 98.6 °F 68.0 °F 37% 29.99 in 10.0 miles SSE 6.9 mph - N/A   Clear
4:35 PM 98.6 °F 69.8 °F 39% 29.99 in 10.0 miles South 8.1 mph - N/A   Scattered Clouds
4:55 PM 95.0 °F 77.0 °F 56% 29.99 in 10.0 miles SSW 8.1 mph - N/A   Mostly Cloudy
5:15 PM 95.0 °F 77.0 °F 56% 29.99 in 10.0 miles SW 11.5 mph - N/A   Scattered Clouds
5:35 PM 91.4 °F 75.2 °F 59% 29.99 in 10.0 miles SSW 11.5 mph - N/A   Scattered Clouds
5:55 PM 91.4 °F 77.0 °F 63% 29.99 in 10.0 miles West 6.9 mph - N/A   Scattered Clouds
6:15 PM 91.4 °F 77.0 °F 63% 30.00 in 10.0 miles West 8.1 mph - N/A   Scattered Clouds
6:35 PM 89.6 °F 75.2 °F 62% 30.01 in 10.0 miles West 6.9 mph - N/A   Mostly Cloudy
6:55 PM 89.6 °F 75.2 °F 62% 30.01 in 10.0 miles West 5.8 mph - N/A   Scattered Clouds
7:15 PM 87.8 °F 77.0 °F 70% 30.02 in 10.0 miles SW 19.6 mph 24.2 mph N/A   Mostly Cloudy
7:35 PM 86.0 °F 75.2 °F 70% 30.03 in 10.0 miles SW 11.5 mph 18.4 mph N/A   Scattered Clouds
7:55 PM 82.4 °F 73.4 °F 74% 30.04 in 10.0 miles SSW 17.3 mph - N/A   Mostly Cloudy
8:15 PM 82.4 °F 75.2 °F 79% 30.05 in 10.0 miles SSW 12.7 mph 19.6 mph N/A   Overcast
8:35 PM 80.6 °F 75.2 °F 84% 30.06 in 7.0 miles Calm Calm - N/A Rain Light Rain
8:55 PM 80.6 °F 77.0 °F 89% 30.05 in 10.0 miles Calm Calm - N/A   Light Drizzle
9:15 PM 80.6 °F 75.2 °F 84% 30.06 in 10.0 miles Calm Calm - N/A   Overcast
9:35 PM 80.6 °F 77.0 °F 89% 30.07 in 10.0 miles Calm Calm - N/A   Overcast
9:55 PM 78.8 °F 77.0 °F 94% 30.09 in 5.0 miles South 10.4 mph - 0.05 in Rain Light Rain
10:15 PM 78.8 °F 75.2 °F 89% 30.09 in 10.0 miles SSW 11.5 mph - N/A   Overcast
10:35 PM 78.8 °F 75.2 °F 89% 30.10 in 10.0 miles NNW 4.6 mph - 0.01 in Rain Rain
10:55 PM 78.8 °F 77.0 °F 94% 30.10 in 10.0 miles NW 4.6 mph - 0.02 in Rain Light Rain
11:15 PM 77.0 °F 77.0 °F 100% 30.11 in 1.8 miles Calm Calm - 0.19 in Rain Heavy Rain
11:35 PM 77.0 °F 77.0 °F 100% 30.10 in 7.0 miles ESE 3.5 mph - 0.31 in   Mostly Cloudy
11:55 PM 78.8 °F 77.0 °F 94% 30.11 in 10.0 miles Calm Calm - 0.31 in   Scattered Clouds
ADVERTISEMENT
Enter city or zip code to search weather conditions:


  • 490 First Avenue South
  • St. Petersburg, FL 33701
  • 727-893-8111